Location: Cambroso
(45.2833°N, 12.0850°E)
Time: 19:39:49
(UTC+00:00)

Cosmos 2082 Rocket - Pass Details

Date: 21 January 2021
Orbit: 832 x 854 km, 71.0° (Epoch: 03 March)

Event Time Altitude Azimuth Distance (km) Brightness Sun altitude
Rises 17:35:20 0° 343° (NNW) 3,436 5.4 -16.0°
Reaches altitude 10° 17:39:00 10° 6° (N) 2,496 4.5 -16.6°
Enters shadow 17:41:31 15° 32° (NNE) 2,174 3.9 -17.0°
